Location: Recife
(8.0585°S, 34.8848°W)
Time: 22:35:23
(UTC-03:00)

Vanguard 1 - Pass Details

Date: 20 April 2026
Orbit: 654 x 3817 km, 34.2° (Epoch: 12 May)

Event Time Altitude Azimuth Distance (km) Brightness Sun altitude
Rises 22:56:05 0° 303° (WNW) 7,645 14.7 -83.3°
Reaches altitude 10° 23:10:52 10° 337° (NNW) 6,906 14.3 -85.8°
Maximum altitude 23:14:35 11° 346° (NNW) 6,824 14.3 -86.1°
Drops below altitude 10° 23:18:16 10° 356° (N) 6,789 14.3 -86.2°
Sets 23:32:08 0° 31° (NNE) 7,131 14.5 -84.9°
